Regional Weather Roundup
Issued by NWS

Home | Current Version | Previous Version | Text Only | Print | Product List | Glossary On
Versions: 1 2 3 4 5 6 7 8 9 10 11 12 13 14 15 16 17 18 19 20 21 22 23 24 25 26 27 28 29 30 31 32 33 34 35 36 37 38 39 40 41 42 43 44 45 46 47 48 49 50
000
ASCA42 TJSJ 062210
RWRPR
PUERTO RICO/U.S. VIRGIN ISLANDS HOURLY WEATHER ROUNDUP
NATIONAL WEATHER SERVICE SAN JUAN PR
600 PM AST FRI MAR 06 2015

PRZ001-004-062300-
PUERTO RICO

CITY           SKY/WX    TMP DP  RH WIND       PRES   REMARKS
SAN JUAN LMM   PTCLDY    81  68  65 E15G21    30.07R
MAYAGUEZ       PTCLDY    82  70  65 SW6       30.08
AGUADILLA      CLEAR     79  66  65 E20G28    30.06S
CEIBA          CLEAR     79  66  65 E9        30.09R
$$

PRZ006-007-062300-
U.S. VIRGIN ISLANDS

CITY           SKY/WX    TMP DP  RH WIND       PRES   REMARKS
$$

HOURLY WEATHER ROUNDUP FOR THE NEWS MEDIA

CITY           SKY/WX    TMP DP  RH WIND       PRES   REMARKS
ORLANDO        CLOUDY    60  56  86 NE9       30.22F
NEW YORK       PTCLDY    23   8  52 S8        30.45F WCI  14
NEWARK         PTCLDY    25   6  44 SW9       30.43F WCI  15
CHICAGO        MOSUNNY   26  14  60 SW20G30   30.20F WCI  12
HARTFORD       CLEAR     22   7  52 SE7       30.41F WCI  13
BOSTON         PTCLDY    23  11  60 SE10      30.39F WCI  12
DALLAS         SUNNY     52  23  32 VRB6      30.47F
PHILADELPHIA   SUNNY     26   9  48 SW8       30.46F WCI  18
LOS ANGELES    SUNNY     76  21  12 W10       30.03F
WASHINGTON DC  MOSUNNY   24   3  40 CALM      30.46F


USA.gov is the U.S. government's official web portal to all federal, state and local government web resources and services.